This is the latest recevied weather packets stored in our database for station/object KC5DP. If no packets are shown the sender has not sent any weather packets the latest 10 day(s).
| Time | Temp. | Humidity | Pressure | Rain* | Wind** | Luminosity | Snow |
|---|---|---|---|---|---|---|---|
| 1777662438 | 15.56° C | 97% | 1010.8 hPa | 8.89 mm | - | 16 W/m² | - |
| 1777662134 | 15.56° C | 97% | 1010.5 hPa | 7.11 mm | - | 19 W/m² | - |
| 1777661830 | 16.11° C | 97% | 1010.5 hPa | 7.11 mm | - | 22 W/m² | - |
| 1777661526 | 16.11° C | 96% | 1010.2 hPa | 6.1 mm | - | 27 W/m² | - |
| 1777659296 | 17.22° C | 92% | 1010.6 hPa | 0 mm | - | 53 W/m² | - |
| 1777658993 | 17.22° C | 91% | 1010.6 hPa | 0 mm | - | 72 W/m² | - |
| 1777658084 | 17.22° C | 90% | 1011.5 hPa | 0 mm | - | 145 W/m² | - |
| 1777657780 | 17.22° C | 90% | 1011.4 hPa | 0 mm | - | 122 W/m² | - |
| 1777656873 | 17.22° C | 92% | 1011.6 hPa | 0 mm | - | 122 W/m² | - |
| 1777655656 | 17.22° C | 92% | 1011.9 hPa | 0 mm | - | 322 W/m² | - |
| 1777655353 | 17.22° C | 94% | 1012.2 hPa | 0 mm | - | 175 W/m² | - |
| 1777653536 | 17.22° C | 97% | 1012.5 hPa | 0 mm | - | 112 W/m² | - |
| 1777653232 | 17.22° C | 97% | 1012.6 hPa | 0 mm | - | 150 W/m² | - |
| 1777652929 | 17.22° C | 97% | 1012.6 hPa | 0 mm | - | 130 W/m² | - |
| 1777652626 | 17.22° C | 97% | 1012.7 hPa | 0 mm | - | 126 W/m² | - |
| 1777652323 | 17.22° C | 97% | 1012.9 hPa | 0 mm | - | 94 W/m² | - |
| 1777652020 | 17.22° C | 97% | 1013 hPa | 0 mm | - | 98 W/m² | - |
| 1777651716 | 16.67° C | 97% | 1013.4 hPa | 0 mm | - | 89 W/m² | - |
| 1777651413 | 16.67° C | 97% | 1013.6 hPa | 0 mm | - | 44 W/m² | - |
| 1777651111 | 16.67° C | 97% | 1013.6 hPa | 0 mm | - | 44 W/m² | - |
| 1777650504 | 16.67° C | 98% | 1013.7 hPa | 0 mm | - | 32 W/m² | - |
| 1777650201 | 16.67° C | 98% | 1013.7 hPa | 0 mm | - | 31 W/m² | - |
| 1777649899 | 16.67° C | 98% | 1013.6 hPa | 0 mm | - | 32 W/m² | - |
| 1777649596 | 16.67° C | 98% | 1013.6 hPa | 0 mm | - | 40 W/m² | - |
| 1777649292 | 17.22° C | 98% | 1013.4 hPa | 0 mm | - | 45 W/m² | - |
* Rain latest hour (hover to see other rain measurements)
** Current wind speed in m/s (hover to see current wind gust speed)